User: anonymous   Login
Location: Brno
(49.2000°N, 16.6330°E)
Time: 05:09:13
(UTC+02:00)
Language:

Meteor 1-4 Rocket - Orbit

View from above orbital plane
View from above orbital plane
View from above satellite
View from above satellite

Ground track
Ground track

The orbit data is extracted from the following two-line orbital elements,

1 04394U 70037B   18147.56650867  .00000731  00000-0  24389-4 0  9992
2 04394  81.2408 330.2568 0040540  29.0496 331.2982 15.28841198617374
Epoch (UTC): 27 May 2018 13:35:46
Eccentricity: 0.0040540
inclination: 81.2408°
perigee height: 451 km
apogee height: 507 km
right ascension of ascending node: 330.2568°
argument of perigee: 29.0496°
revolutions per day: 15.28841198
mean anomaly at epoch: 331.2982°
orbit number at epoch: 61737

The dashed part of the orbit path shows where the satellite is in the earth's shadow,  

DLR